Regional Weather Roundup
Issued by NWS

Home | Current Version | Previous Version | Graphics & Text | Print | Product List | Glossary On
Versions: 1 2 3 4 5 6 7 8 9 10 11 12 13 14 15 16 17 18 19 20 21 22 23 24 25 26 27 28 29 30 31 32 33 34 35 36 37 38 39 40 41 42 43 44 45 46 47 48 49 50
000
ASUS43 KDMX 021307
RWRIA

WEATHER ROUNDUP FOR IOWA
NATIONAL WEATHER SERVICE DES MOINES IA
800 AM CDT WED SEP 02 2015

NOTE: "FAIR" INDICATES FEW OR NO CLOUDS BELOW 12,000 FEET WITH NO
SIGNIFICANT WEATHER AND/OR OBSTRUCTIONS TO VISIBILITY.

* - THESE STATIONS ARE NOT NWS STATIONS...THUS NOT UNDER NWS
QUALITY CONTROL.  THEY ALSO DO NOT REPORT WEATHER SUCH
AS PRECIPITATION OR FOG.

IAZ001>003-012>014-020>022-031>034-043>046-021400-
   NORTHWEST IOWA

CITY           SKY/WX    TMP DP  RH WIND       PRES   REMARKS
CARROLL *      SUNNY     70  68  94 SE9       29.95S
CHEROKEE *     SUNNY     70  70 100 S7        29.91S
DENISON *      SUNNY     72  68  88 S12       29.91R
LE MARS *      SUNNY     70  68  94 S8        29.90R
ORANGE CITY *  SUNNY     70  68  94 S8        29.90R FOG
SHELDON *      SUNNY     70  68  94 SE8G14    29.89R FOG
SIOUX CITY     SUNNY     69  63  81 SE9       29.88R
SPENCER        SUNNY     71  66  84 S12       29.93R
STORM LAKE *   SUNNY     70  68  94 S9        29.94S
$$

IAZ055>058-069>071-079>083-090>094-021400-
   SOUTHWEST IOWA

CITY           SKY/WX    TMP DP  RH WIND       PRES   REMARKS
ATLANTIC *     SUNNY     72  70  94 S13G18    29.96R
AUDUBON *      SUNNY     72  66  83 S12       29.97R
CLARINDA *     CLOUDY    72  70  94 SE13G20   30.00S
COUNCIL BLFS * SUNNY     73  68  83 SE13      29.94R
CRESTON *      LGT RAIN  70  68  94 S17       30.03R
LAMONI         LGT RAIN  70  68  93 SE9       30.05F FOG
RED OAK *      PTSUNNY   72  70  94 S10       29.97S
SHENANDOAH *   CLOUDY    73  70  88 SE14      29.97R
$$

IAZ047>049-059>061-072>074-084-021400-
   CENTRAL IOWA

CITY           SKY/WX    TMP DP  RH WIND       PRES   REMARKS
AMES           CLOUDY    70  66  87 S15       29.97F
ANKENY *       CLOUDY    70  70 100 S12G18    29.99F
CHARITON *     DRIZZLE   70  68  94 CALM      30.07R
DES MOINES     CLOUDY    72  67  84 SE10      30.00F
GRINNELL*      RAIN      70  66  88 S17       29.98F
KNOXVILLE *    LGT RAIN  70  68  94 CALM      30.04R
MARSHALLTOWN   CLOUDY    70  66  87 S7        29.98S
PELLA *        RAIN      70  70 100 S5        30.07R
PERRY *          N/A     70  68  94 SE9       29.98S
$$

IAZ004>006-015-016-023>025-035-036-021400-
   NORTH CENTRAL IOWA

CITY           SKY/WX    TMP DP  RH WIND       PRES   REMARKS
ALGONA *       CLOUDY    72  66  83 S14G21    29.95S
CLARION *      CLOUDY    72  66  83 S13       29.95F
ESTHERVILLE    SUNNY     69  66  90 S14       29.93R
FORT DODGE *   SUNNY     72  63  73 S13G18    29.96S
MASON CITY     CLOUDY    71  66  84 VRB3      29.98R
FOREST CITY *  CLOUDY    70  64  83 S6        29.96S
IOWA FALLS *     N/A     70  66  88 S12       29.97F
$$

IAZ007>011-017>019-026>030-037>042-050>054-066-021400-
   NORTHEAST IOWA

CITY           SKY/WX    TMP DP  RH WIND       PRES   REMARKS
CEDAR RAPIDS   CLOUDY    70  70 100 S8        30.03R FOG
CHARLES CITY * PTSUNNY   70  70 100 E3        29.99S FOG
CLINTON *      MOSUNNY   72  68  88 S6        30.08S
DECORAH *      SUNNY     70  68  94 S8        29.99S
DUBUQUE        CLOUDY    71  69  93 S9        30.05R FOG
MONTICELLO *   SUNNY     72  70  94 S5        30.03S FOG
OELWEIN *        N/A     70  68  94 VRB3      30.00R
WATERLOO       CLOUDY    70  68  93 SW6       29.97R
$$

IAZ064-065-067-068-078-021400-
   EAST CENTRAL IOWA

CITY           SKY/WX    TMP DP  RH WIND       PRES   REMARKS
DAVENPORT      MOSUNNY   74  69  85 S7        30.06S
IOWA CITY      CLOUDY    69  68  96 CALM      30.05R FOG
MT. PLEASANT * CLOUDY    73  68  83 S3        30.07S HAZE
MUSCATINE *    SUNNY     72  70  94 S5        30.06S
QUAD CITIES    MOSUNNY   74  68  81 CALM      30.06R
$$

IAZ062-063-075>077-085>089-095>099-021400-
   SOUTHEAST IOWA

CITY           SKY/WX    TMP DP  RH WIND       PRES   REMARKS
BURLINGTON     PTSUNNY   74  70  87 S7        30.07R
FAIRFIELD *    MOSUNNY   72  68  88 S5        30.07R
FORT MADISON * SUNNY     73  72  94 S7        30.08R
KEOKUK *       SUNNY     73  70  88 SW6       30.07R
OSKALOOSA *      N/A     68  66  94 CALM      30.07R FOG
CENTERVILLE *  LGT RAIN  68  68 100 S6        30.09R
OTTUMWA        CLOUDY    71  69  93 SW6       30.05R
WASHINGTON *     N/A    N/A N/A N/A MISG        N/A
$$

ABBREVIATIONS USED IN REMARKS
   TC - TEMPERATURES IN CELSIUS
  WCI - WIND CHILL INDEX
   HX - HEAT INDEX
  VSB - VISIBILITY
$$



USA.gov is the U.S. government's official web portal to all federal, state and local government web resources and services.